GW7285 Weather Reports


time (UTC)temp
C
wind
direction
speed
KPH
gust
KPH
rain 1hr
cm
rain 24hr
cm
rain mn
cm
humidity
%
barometer
mb
20260906181346 36 121 0.0 4.8 0.00 0.00 0.00 46 1016.4
20260906180841 36 138 1.6 6.4 0.00 0.00 0.00 49 1016.4
20260906180336 36 79 1.6 3.2 0.00 0.00 0.00 49 1016.4
20260906175833 36 129 1.6 3.2 0.00 0.00 0.00 48 1016.4
20260906175329 36 97 6.4 6.4 0.00 0.00 0.00 48 1016.6
20260906174828 36 92 0.0 3.2 0.00 0.00 0.00 50 1016.8
20260906174327 36 119 0.0 1.6 0.00 0.00 0.00 48 1016.7
20260906173822 36 107 0.0 1.6 0.00 0.00 0.00 50 1016.8
20260906173318 36 165 1.6 4.8 0.00 0.00 0.00 49 1016.9
20260906172817 36 129 0.0 3.2 0.00 0.00 0.00 48 1016.9
20260906172313 36 128 1.6 3.2 0.00 0.00 0.00 48 1017.2
20260906171814 36 121 0.0 4.8 0.00 0.00 0.00 48 1017.1
20260906171308 35 169 3.2 4.8 0.00 0.00 0.00 50 1017.4
20260906170804 36 209 4.8 4.8 0.00 0.00 0.00 48 1017.3
20260906170300 36 157 3.2 4.8 0.00 0.00 0.00 49 1017.3
20260906165756 36 125 6.4 6.4 0.00 0.00 0.00 48 1017.4
20260906165256 35 100 0.0 4.8 0.00 0.00 0.00 50 1017.4
20260906164756 35 138 1.6 6.4 0.00 0.00 0.00 49 1017.4
20260906164256 35 120 0.0 4.8 0.00 0.00 0.00 48 1017.2
20260906163752 36 83 0.0 4.8 0.00 0.00 0.00 49 1017.5
20260906163248 36 93 1.6 4.8 0.00 0.00 0.00 50 1017.5
20260906162745 35 108 0.0 3.2 0.00 0.00 0.00 52 1017.5
20260906162240 35 50 0.0 4.8 0.00 0.00 0.00 52 1017.5
20260906161739 34 133 1.6 3.2 0.00 0.00 0.00 55 1017.5
20260906161239 34 123 0.0 3.2 0.00 0.00 0.00 54 1017.6
20260906160738 35 89 3.2 6.4 0.00 0.00 0.00 53 1017.6
20260906160237 33 112 3.2 4.8 0.00 0.00 0.00 55 1017.5
20260906155735 35 77 4.8 6.4 0.00 0.00 0.00 54 1017.5
20260906155230 35 106 0.0 1.6 0.00 0.00 0.00 51 1017.4
20260906154725 34 115 0.0 9.7 0.00 0.00 0.00 55 1017.4
20260906154221 33 18 0.0 6.4 0.00 0.00 0.00 55 1017.2
20260906153719 33 124 4.8 4.8 0.00 0.00 0.00 54 1017.2
20260906153214 34 165 3.2 4.8 0.00 0.00 0.00 54 1017.2
20260906152709 33 157 3.2 6.4 0.00 0.00 0.00 56 1017.3
20260906152209 33 99 1.6 11.3 0.00 0.00 0.00 56 1017.2
20260906151703 33 82 0.0 4.8 0.00 0.00 0.00 58 1017.2
20260906151159 32 93 3.2 9.7 0.00 0.00 0.00 58 1017.3
20260906150654 32 151 3.2 4.8 0.00 0.00 0.00 58 1017.4
20260906150149 32 110 0.0 4.8 0.00 0.00 0.00 58 1017.4
20260906145649 31 111 1.6 4.8 0.00 0.00 0.00 61 1017.2
20260906145149 32 80 1.6 1.6 0.00 0.00 0.00 61 1017.2
20260906144648 32 130 1.6 4.8 0.00 0.00 0.00 59 1017.3
20260906144143 32 100 0.0 6.4 0.00 0.00 0.00 61 1017.4
20260906143643 32 107 1.6 3.2 0.00 0.00 0.00 61 1017.4
20260906143140 31 73 0.0 1.6 0.00 0.00 0.00 60 1017.5
20260906142639 31 106 1.6 3.2 0.00 0.00 0.00 61 1017.3
20260906142135 31 147 0.0 3.2 0.00 0.00 0.00 62 1017.4
20260906141633 31 66 0.0 0.0 0.00 0.00 0.00 63 1017.3
20260906141129 30 120 3.2 4.8 0.00 0.00 0.00 62 1017.2
20260906140628 30 96 1.6 3.2 0.00 0.00 0.00 64 1017.2
20260906140123 30 114 0.0 3.2 0.00 0.00 0.00 65 1017.2
20260906135620 30 83 0.0 3.2 0.00 0.00 0.00 65 1017.1
20260906135116 30 101 1.6 3.2 0.00 0.00 0.00 66 1017.1
20260906134611 29 120 3.2 6.4 0.00 0.00 0.00 67 1017.2
20260906134107 29 117 0.0 1.6 0.00 0.00 0.00 67 1017.0
20260906133602 29 127 1.6 3.2 0.00 0.00 0.00 66 1016.9
20260906133057 28 107 0.0 3.2 0.00 0.00 0.00 67 1017.0
20260906132552 28 113 0.0 4.8 0.00 0.00 0.00 68 1017.0
20260906132048 28 110 4.8 4.8 0.00 0.00 0.00 67 1017.0
20260906131543 28 100 0.0 1.6 0.00 0.00 0.00 68 1016.7
20260906131038 28 109 0.0 6.4 0.00 0.00 0.00 69 1016.7
20260906130538 28 103 0.0 4.8 0.00 0.00 0.00 69 1016.6
20260906130033 27 92 1.6 4.8 0.00 0.00 0.00 70 1016.5
20260906125531 27 107 0.0 1.6 0.00 0.00 0.00 71 1016.4
20260906125030 27 103 0.0 3.2 0.00 0.00 0.00 71 1016.5
20260906124526 27 82 0.0 3.2 0.00 0.00 0.00 72 1016.5
20260906124021 26 89 0.0 3.2 0.00 0.00 0.00 73 1016.5
20260906123520 26 112 0.0 1.6 0.00 0.00 0.00 74 1016.4
20260906123016 26 93 0.0 3.2 0.00 0.00 0.00 74 1016.4
20260906122515 26 125 0.0 0.0 0.00 0.00 0.00 76 1016.3
20260906122011 26 127 0.0 0.0 0.00 0.00 0.00 76 1016.1
20260906121507 26 106 0.0 0.0 0.00 0.00 0.00 75 1016.1
20260906121003 26 107 0.0 0.0 0.00 0.00 0.00 76 1016.3
20260906120458 26 137 0.0 0.0 0.00 0.00 0.00 75 1016.1
20260906115954 26 121 0.0 0.0 0.00 0.00 0.00 75 1016.1
20260906115450 26 115 0.0 4.8 0.00 0.00 0.00 75 1016.1
20260906114950 26 100 0.0 4.8 0.00 0.00 0.00 75 1016.1
20260906114444 26 113 0.0 0.0 0.00 0.00 0.00 75 1016.1
20260906113941 26 105 0.0 1.6 0.00 0.00 0.00 75 1016.2
20260906113439 26 86 0.0 1.6 0.00 0.00 0.00 75 1016.2
20260906112935 26 97 0.0 1.6 0.00 0.00 0.00 75 1016.2
20260906112430 26 113 0.0 0.0 0.00 0.00 0.00 75 1016.0
20260906111925 25 115 0.0 0.0 0.00 0.00 0.00 77 1015.9
20260906111425 25 122 0.0 0.0 0.00 0.00 0.00 76 1015.9
20260906110920 25 121 0.0 0.0 0.00 0.00 0.00 77 1015.9
20260906110415 25 109 0.0 0.0 0.00 0.00 0.00 78 1015.9
20260906105914 25 108 0.0 0.0 0.00 0.00 0.00 77 1015.9
20260906105410 25 107 0.0 0.0 0.00 0.00 0.00 78 1015.9
20260906104906 25 98 0.0 0.0 0.00 0.00 0.00 80 1015.9
20260906104404 25 114 0.0 0.0 0.00 0.00 0.00 81 1015.9
20260906103903 25 114 0.0 0.0 0.00 0.00 0.00 81 1015.8
20260906103402 25 114 0.0 0.0 0.00 0.00 0.00 80 1015.9
20260906102858 25 114 0.0 0.0 0.00 0.00 0.00 80 1015.7
20260906102357 25 114 0.0 0.0 0.00 0.00 0.00 79 1016.0
20260906101851 25 114 0.0 0.0 0.00 0.00 0.00 79 1015.7
20260906101347 25 114 0.0 0.0 0.00 0.00 0.00 79 1015.7
20260906100842 26 114 0.0 0.0 0.00 0.00 0.00 76 1015.8
20260906100341 26 114 0.0 0.0 0.00 0.00 0.00 75 1015.5
20260906095837 26 114 0.0 0.0 0.00 0.00 0.00 74 1015.6
20260906095332 26 94 0.0 0.0 0.00 0.00 0.00 74 1015.6
20260906094831 26 100 0.0 1.6 0.00 0.00 0.00 75 1015.5
20260906094327 26 103 0.0 0.0 0.00 0.00 0.00 74 1015.7
20260906093823 26 101 0.0 0.0 0.00 0.00 0.00 75 1015.7
20260906093319 26 111 0.0 0.0 0.00 0.00 0.00 74 1015.7
20260906092814 26 114 0.0 1.6 0.00 0.00 0.00 73 1015.6
20260906092313 26 115 0.0 0.0 0.00 0.00 0.00 73 1015.6
20260906091809 26 98 0.0 0.0 0.00 0.00 0.00 74 1015.5
20260906091305 26 121 0.0 0.0 0.00 0.00 0.00 75 1015.7
20260906090801 25 122 0.0 0.0 0.00 0.00 0.00 77 1015.6
20260906090300 25 122 0.0 0.0 0.00 0.00 0.00 77 1015.4
20260906085801 25 122 0.0 0.0 0.00 0.00 0.00 77 1015.5
20260906085259 25 122 0.0 0.0 0.00 0.00 0.00 77 1015.4
20260906084754 25 122 0.0 0.0 0.00 0.00 0.00 77 1015.3
20260906084254 26 122 0.0 0.0 0.00 0.00 0.00 76 1015.3
20260906083749 25 122 0.0 0.0 0.00 0.00 0.00 76 1015.3
20260906083245 25 118 0.0 0.0 0.00 0.00 0.00 78 1015.2
20260906082739 25 118 0.0 0.0 0.00 0.00 0.00 78 1015.2
20260906082235 25 118 0.0 0.0 0.00 0.00 0.00 78 1015.3
20260906081731 25 118 0.0 0.0 0.00 0.00 0.00 77 1015.2
20260906081231 26 118 0.0 0.0 0.00 0.00 0.00 76 1015.0
20260906080728 26 118 0.0 0.0 0.00 0.00 0.00 75 1015.2
20260906080224 26 118 0.0 0.0 0.00 0.00 0.00 75 1015.2
20260906075724 26 118 0.0 0.0 0.00 0.00 0.00 75 1015.2
20260906075224 26 118 0.0 0.0 0.00 0.00 0.00 74 1015.3
20260906074719 26 118 0.0 0.0 0.00 0.00 0.00 73 1015.2
20260906074218 27 118 0.0 0.0 0.00 0.00 0.00 71 1015.4
20260906073713 26 115 0.0 0.0 0.00 0.00 0.00 73 1015.2
20260906073208 26 126 0.0 0.0 0.00 0.00 0.00 74 1015.2
20260906072704 26 126 0.0 0.0 0.00 0.00 0.00 73 1015.3
20260906072159 26 126 0.0 1.6 0.00 0.00 0.00 74 1015.3
20260906071655 26 104 0.0 0.0 0.00 0.00 0.00 74 1015.2
20260906071154 26 104 0.0 0.0 0.00 0.00 0.00 73 1015.4
20260906070651 27 104 0.0 0.0 0.00 0.00 0.00 72 1015.4
20260906070147 27 104 0.0 0.0 0.00 0.00 0.00 71 1015.3
20260906065646 27 104 0.0 0.0 0.00 0.00 0.00 69 1015.4
20260906065141 28 104 0.0 0.0 0.00 0.00 0.00 66 1015.2
20260906064637 28 103 0.0 0.0 0.00 0.00 0.00 64 1015.4
20260906064132 28 120 0.0 0.0 0.00 0.00 0.00 65 1015.5
20260906063628 28 110 0.0 0.0 0.00 0.00 0.00 64 1015.5
20260906063123 28 123 0.0 0.0 0.00 0.00 0.00 63 1015.4
20260906062619 29 121 0.0 1.6 0.00 0.00 0.00 62 1015.5
20260906062117 29 112 0.0 1.6 0.00 0.00 0.00 63 1015.5
20260906061614 29 123 0.0 0.0 0.00 0.00 0.00 63 1015.4
20260906061113 29 120 0.0 3.2 0.00 0.00 0.00 63 1015.4
20260906060611 28 132 0.0 1.6 0.00 0.00 0.00 64 1015.7
20260906060108 28 131 1.6 3.2 0.00 0.00 0.00 64 1015.5
20260906055603 28 104 0.0 0.0 0.00 0.00 0.00 64 1015.6
20260906055058 28 95 0.0 1.6 0.00 0.00 0.00 64 1015.5
20260906054558 28 95 0.0 1.6 0.00 0.00 0.00 64 1015.6
20260906054053 28 124 0.0 1.6 0.00 0.00 0.00 65 1015.8
20260906053550 29 108 0.0 0.0 0.00 0.00 0.00 64 1015.8
20260906053045 29 114 0.0 0.0 0.00 0.00 0.00 63 1015.6
20260906052540 29 120 0.0 0.0 0.00 0.00 0.00 64 1015.8
20260906052037 29 112 0.0 0.0 0.00 0.00 0.00 63 1015.7
20260906051533 29 115 0.0 0.0 0.00 0.00 0.00 66 1015.7
20260906051028 29 117 0.0 1.6 0.00 0.00 0.00 63 1015.8
20260906050523 29 112 0.0 0.0 0.00 0.00 0.00 66 1015.7
20260906050018 29 126 0.0 0.0 0.00 0.00 0.00 65 1015.7
20260906045516 29 119 0.0 1.6 0.00 0.00 0.00 63 1015.9
20260906045012 29 121 0.0 1.6 0.00 0.00 0.00 64 1015.5
20260906044507 29 118 0.0 0.0 0.00 0.00 0.00 64 1015.8
20260906044003 29 118 0.0 1.6 0.00 0.00 0.00 65 1015.7
20260906043458 29 110 0.0 0.0 0.00 0.00 0.00 65 1015.7
20260906042954 30 110 0.0 0.0 0.00 0.00 0.00 66 1015.8
20260906042453 29 106 0.0 1.6 0.00 0.00 0.00 65 1015.8
20260906041953 29 111 0.0 1.6 0.00 0.00 0.00 66 1015.6
20260906041450 28 112 0.0 0.0 0.00 0.00 0.00 68 1015.6
20260906040948 29 112 0.0 0.0 0.00 0.00 0.00 66 1015.6
20260906040444 30 117 0.0 0.0 0.00 0.00 0.00 67 1015.5
20260906035939 30 118 0.0 0.0 0.00 0.00 0.00 66 1015.5
20260906035435 30 120 0.0 0.0 0.00 0.00 0.00 65 1015.4
20260906034931 30 107 0.0 0.0 0.00 0.00 0.00 65 1015.4
20260906034431 30 110 0.0 1.6 0.00 0.00 0.00 64 1015.5
20260906033926 30 117 0.0 1.6 0.00 0.00 0.00 63 1015.5
20260906033426 30 122 0.0 0.0 0.00 0.00 0.00 63 1015.6
20260906032922 30 104 0.0 0.0 0.00 0.00 0.00 62 1015.3
20260906032418 30 124 0.0 0.0 0.00 0.00 0.00 62 1015.3
20260906031912 30 114 0.0 0.0 0.00 0.00 0.00 62 1015.3
20260906031409 31 112 0.0 0.0 0.00 0.00 0.00 62 1015.3
20260906030908 31 109 3.2 3.2 0.00 0.00 0.00 61 1015.5
20260906030404 31 147 1.6 1.6 0.00 0.00 0.00 62 1015.2
20260906025858 31 128 0.0 1.6 0.00 0.00 0.00 61 1015.2
20260906025352 31 105 0.0 0.0 0.00 0.00 0.00 62 1014.8
20260906024851 31 112 0.0 0.0 0.00 0.00 0.00 62 1014.8
20260906024351 31 115 0.0 0.0 0.00 0.00 0.00 62 1014.7
20260906023846 31 121 0.0 0.0 0.00 0.00 0.00 61 1014.6
20260906023342 31 106 0.0 0.0 0.00 0.00 0.00 61 1014.6
20260906022837 31 109 0.0 0.0 0.00 0.00 0.00 60 1014.5
20260906022337 31 108 0.0 0.0 0.00 0.00 0.00 60 1014.5
20260906021833 31 117 0.0 0.0 0.00 0.00 0.00 60 1014.4
20260906021332 31 106 0.0 0.0 0.00 0.00 0.00 59 1014.2
20260906020827 31 118 0.0 0.0 0.00 0.00 0.00 59 1014.2
20260906020327 31 106 0.0 0.0 0.00 0.00 0.00 59 1014.3
20260906015821 32 106 0.0 0.0 0.00 0.00 0.00 58 1014.1
20260906015321 32 118 0.0 0.0 0.00 0.00 0.00 57 1014.1
20260906014820 32 114 0.0 1.6 0.00 0.00 0.00 57 1014.1
20260906014316 32 114 0.0 1.6 0.00 0.00 0.00 57 1014.0
20260906013812 32 96 0.0 1.6 0.00 0.00 0.00 56 1014.0
20260906013307 32 104 0.0 0.0 0.00 0.00 0.00 57 1013.9
20260906012803 32 115 0.0 0.0 0.00 0.00 0.00 57 1013.8
20260906012306 32 135 0.0 0.0 0.00 0.00 0.00 57 1013.8
20260906011758 31 135 0.0 0.0 0.00 0.00 0.00 57 1013.8
20260906011258 30 135 0.0 0.0 0.00 0.00 0.00 59 1013.6
20260906010754 31 135 0.0 0.0 0.00 0.00 0.00 57 1013.6
20260906010250 31 135 0.0 0.0 0.00 0.00 0.00 57 1013.6
20260906005745 31 135 0.0 0.0 0.00 0.00 0.00 57 1013.5
20260906005244 31 135 0.0 0.0 0.00 0.00 0.00 56 1013.5
20260906004743 31 135 0.0 0.0 0.00 0.00 0.00 57 1013.7
20260906004238 31 135 0.0 0.0 0.00 0.00 0.00 56 1013.8
20260906003733 32 135 0.0 0.0 0.00 0.00 0.00 55 1013.5
20260906003229 32 135 0.0 0.0 0.00 0.00 0.00 52 1013.6
20260906002729 33 135 0.0 0.0 0.00 0.00 0.00 51 1013.5
20260906002228 33 135 0.0 0.0 0.00 0.00 0.00 49 1013.6
20260906001724 33 135 0.0 0.0 0.00 0.00 0.00 48 1013.5
20260906001219 34 135 0.0 0.0 0.00 0.00 0.00 47 1013.8
20260906000714 35 135 0.0 0.0 0.00 0.00 0.00 45 1013.7
20260906000211 35 135 0.0 1.6 0.00 0.00 0.00 44 1013.5
20260905235709 35 129 0.0 0.0 0.00 0.00 0.00 44 1013.4
20260905235204 36 130 0.0 0.0 0.00 0.00 0.00 42 1013.5
20260905234659 36 129 0.0 0.0 0.00 0.00 0.00 41 1013.7
20260905234154 37 119 0.0 0.0 0.00 0.00 0.00 40 1013.5
20260905233649 37 109 0.0 1.6 0.00 0.00 0.00 40 1013.5
20260905233149 36 123 0.0 3.2 0.00 0.00 0.00 41 1013.7
20260905232644 37 111 1.6 3.2 0.00 0.00 0.00 40 1013.6
20260905232140 37 131 0.0 0.0 0.00 0.00 0.00 40 1013.6
20260905231634 37 140 0.0 1.6 0.00 0.00 0.00 39 1013.4
20260905231131 37 110 0.0 1.6 0.00 0.00 0.00 39 1013.5
20260905230627 38 127 3.2 3.2 0.00 0.00 0.00 38 1013.5
20260905230125 38 136 0.0 0.0 0.00 0.00 0.00 38 1013.5
20260905225624 37 132 0.0 1.6 0.00 0.00 0.00 38 1013.6
20260905225120 37 129 0.0 0.0 0.00 0.00 0.00 38 1013.4
20260905224619 37 128 0.0 1.6 0.00 0.00 0.00 39 1013.4
20260905224118 38 166 0.0 4.8 0.00 0.00 0.00 38 1013.4
20260905223616 37 124 0.0 1.6 0.00 0.00 0.00 38 1013.7
20260905223112 38 104 1.6 3.2 0.00 0.00 0.00 37 1013.5
20260905222612 37 119 0.0 3.2 0.00 0.00 0.00 37 1013.5
20260905222107 38 138 1.6 6.4 0.00 0.00 0.00 36 1013.7
20260905221603 38 115 0.0 1.6 0.00 0.00 0.00 37 1013.6
20260905221059 38 147 3.2 4.8 0.00 0.00 0.00 37 1013.9
20260905220554 38 202 3.2 3.2 0.00 0.00 0.00 38 1013.8
20260905220051 38 152 1.6 3.2 0.00 0.00 0.00 37 1013.9
20260905215550 38 132 1.6 3.2 0.00 0.00 0.00 37 1014.0
20260905215046 38 278 1.6 3.2 0.00 0.00 0.00 37 1013.9
20260905214542 38 137 1.6 4.8 0.00 0.00 0.00 37 1013.9
20260905214037 38 144 1.6 1.6 0.00 0.00 0.00 38 1014.0
20260905213532 38 120 1.6 3.2 0.00 0.00 0.00 38 1014.0
20260905213027 38 240 3.2 4.8 0.00 0.00 0.00 38 1014.1
20260905212522 38 118 0.0 1.6 0.00 0.00 0.00 38 1014.2
20260905212021 38 91 3.2 11.3 0.00 0.00 0.00 37 1013.9
20260905211517 38 97 3.2 4.8 0.00 0.00 0.00 39 1014.2
20260905211013 38 127 0.0 3.2 0.00 0.00 0.00 37 1014.3
20260905210508 37 161 1.6 3.2 0.00 0.00 0.00 38 1014.3
20260905210008 37 112 3.2 3.2 0.00 0.00 0.00 37 1014.5
20260905205503 38 113 3.2 6.4 0.00 0.00 0.00 36 1014.3
20260905205001 38 131 3.2 3.2 0.00 0.00 0.00 35 1014.6
20260905204457 38 114 1.6 3.2 0.00 0.00 0.00 37 1014.5
20260905203956 38 117 1.6 4.8 0.00 0.00 0.00 36 1014.7
20260905203452 38 121 1.6 6.4 0.00 0.00 0.00 38 1014.6
20260905202947 38 142 1.6 1.6 0.00 0.00 0.00 36 1014.6
20260905202442 38 112 0.0 4.8 0.00 0.00 0.00 36 1014.9
20260905201938 38 126 0.0 0.0 0.00 0.00 0.00 35 1014.9
20260905201433 38 137 6.4 9.7 0.00 0.00 0.00 35 1014.9
20260905200933 38 125 1.6 3.2 0.00 0.00 0.00 39 1015.0
20260905200429 38 250 3.2 4.8 0.00 0.00 0.00 38 1015.2
20260905195927 38 134 1.6 4.8 0.00 0.00 0.00 39 1015.2
20260905195422 37 114 1.6 1.6 0.00 0.00 0.00 38 1015.3
20260905194918 38 107 3.2 4.8 0.00 0.00 0.00 38 1015.4
20260905194417 38 131 1.6 4.8 0.00 0.00 0.00 36 1015.2
20260905193917 37 155 3.2 4.8 0.00 0.00 0.00 40 1015.2
20260905193412 38 63 1.6 1.6 0.00 0.00 0.00 39 1015.5
20260905192907 37 81 1.6 3.2 0.00 0.00 0.00 40 1015.5
20260905192403 37 126 0.0 3.2 0.00 0.00 0.00 39 1015.4
20260905191902 38 160 4.8 4.8 0.00 0.00 0.00 39 1015.6
20260905191401 37 118 3.2 4.8 0.00 0.00 0.00 40 1015.7
20260905190856 38 124 1.6 6.4 0.00 0.00 0.00 41 1015.5
20260905190354 37 182 1.6 4.8 0.00 0.00 0.00 42 1015.7
20260905185853 37 145 3.2 6.4 0.00 0.00 0.00 41 1015.7
20260905185349 37 121 0.0 4.8 0.00 0.00 0.00 39 1015.8
20260905184848 37 112 0.0 4.8 0.00 0.00 0.00 40 1016.0
20260905184347 37 143 1.6 4.8 0.00 0.00 0.00 42 1015.9
20260905183845 37 126 3.2 11.3 0.00 0.00 0.00 41 1015.9
20260905183341 37 115 4.8 11.3 0.00 0.00 0.00 42 1016.0
20260905182842 37 177 3.2 4.8 0.00 0.00 0.00 42 1016.0
20260905182341 37 120 3.2 6.4 0.00 0.00 0.00 42 1016.2
20260905181837 37 114 3.2 6.4 0.00 0.00 0.00 42 1016.1